Montreal Mirabel, Quebec

12:44 AM EST on November 23, 2017 (GMT -0500)
Montreal Mirabel

Weather History for CYMX - February, 2012

Change the Weather History Date:

Thursday, February 9, 2012

  Actual Average Record
Temperature  
Mean Temperature 25 °F -  
Max Temperature 33 °F 21 °F 35 °F (2005)
Min Temperature 17 °F 3 °F -16 °F (1997)
Degree Days  
Heating Degree Days 40    
Moisture  
Dew Point 18 °F    
Average Humidity 76    
Maximum Humidity 93    
Minimum Humidity 60    
Precipitation  
Precipitation 0.00 in - - ()
Sea Level Pressure  
Sea Level Pressure 30.00 in    
Wind  
Wind Speed 6 mph ()    
Max Wind Speed 12 mph    
Max Gust Speed 18 mph    
Visibility 15.0 miles    
Events      
Averages and records for this station are not official NWS values.
T = Trace of Precipitation, MM = Missing Value Source: Averaged Metar Reports

Daily Weather History Graph

Daily Weather History Graph

Search for Another Location

Airport or City:

Trip Planner

Search our weather history database for the weather conditions in past years. The results will help you decide how hot, cold, wet, or windy it might be!

Date:

Astronomy

Feb. 09, 2012 Rise Set
Actual Time 7:07 AM EST 5:13 PM EST
Civil Twilight 6:36 AM EST 5:44 PM EST
Nautical Twilight 6:01 AM EST 6:19 PM EST
Astronomical Twilight 5:27 AM EST 6:54 PM EST
Moon 7:50 PM EST (2/9) 7:33 AM EST (2/9)
Length of Visible Light 11h 07m
Length of Day
10h 05m
Waning Gibbous, 96% of the Moon is Illuminated
Feb 9
Waning Gibbous
Feb 14
Last Quarter
Feb 21
New
Feb 29
First Quarter
Mar 8
Full

Hourly Weather History & Observations

Time (EST) Temp. Windchill Dew Point Humidity Pressure Visibility Wind Dir Wind Speed Gust Speed Precip Events Conditions
12:00 AM 17.6 °F 9.3 °F 12.2 °F 79% 30.03 in 25.0 mi WSW 5.8 mph - N/A   Partly Cloudy
1:00 AM 17.6 °F 9.3 °F 14.0 °F 86% 30.01 in 25.0 mi WSW 5.8 mph - N/A   Clear
2:00 AM 17.6 °F 9.3 °F 15.8 °F 93% 30.01 in 25.0 mi WSW 5.8 mph - N/A   Clear
3:00 AM 19.4 °F 10.4 °F 15.8 °F 86% 30.01 in 25.0 mi WSW 6.9 mph - N/A   Clear
4:00 AM 19.4 °F 11.5 °F 15.8 °F 86% 29.99 in 25.0 mi WSW 5.8 mph - N/A   Partly Cloudy
5:00 AM 17.6 °F 8.2 °F 15.8 °F 93% 30.00 in 25.0 mi WSW 6.9 mph - N/A   Partly Cloudy
6:00 AM 17.6 °F 8.2 °F 15.8 °F 93% 30.00 in 25.0 mi WSW 6.9 mph - N/A   Partly Cloudy
7:00 AM 17.6 °F 7.3 °F 15.8 °F 93% 30.02 in 15.0 mi WSW 8.1 mph - N/A   Partly Cloudy
8:00 AM 17.6 °F 10.7 °F 14.0 °F 86% 30.04 in 15.0 mi West 4.6 mph - N/A   Partly Cloudy
9:00 AM 19.4 °F 9.5 °F 15.8 °F 86% 30.04 in 15.0 mi WSW 8.1 mph - N/A   Scattered Clouds
10:00 AM 23.0 °F 12.4 °F 17.6 °F 80% 30.04 in 15.0 mi WSW 10.4 mph - N/A   Scattered Clouds
11:00 AM 24.8 °F 15.3 °F 17.6 °F 74% 30.04 in 25.0 mi WSW 9.2 mph - N/A   Scattered Clouds
12:00 PM 26.6 °F 18.2 °F 17.6 °F 69% 30.02 in 25.0 mi WSW 8.1 mph 18.4 mph N/A   Partly Cloudy
1:00 PM 30.2 °F 22.6 °F 19.4 °F 64% 30.00 in 25.0 mi WSW 8.1 mph - N/A   Partly Cloudy
2:00 PM 32.0 °F 24.8 °F 21.2 °F 64% 29.98 in 45.0 mi WSW 8.1 mph - N/A   Partly Cloudy
3:00 PM 33.8 °F 25.3 °F 21.2 °F 60% 29.98 in 25.0 mi WSW 11.5 mph - N/A   Partly Cloudy
4:00 PM 33.8 °F 27.0 °F 21.2 °F 60% 29.97 in 45.0 mi WSW 8.1 mph - N/A   Partly Cloudy
5:00 PM 32.0 °F 27.5 °F 21.2 °F 64% 29.97 in 25.0 mi WSW 4.6 mph - N/A   Partly Cloudy
6:00 PM 30.2 °F 24.3 °F 19.4 °F 64% 29.98 in 25.0 mi SW 5.8 mph - N/A   Partly Cloudy
7:00 PM 30.2 °F 22.6 °F 21.2 °F 69% 29.99 in 25.0 mi SW 8.1 mph - N/A   Partly Cloudy
8:00 PM 30.2 °F 21.3 °F 21.2 °F 69% 29.99 in 25.0 mi SW 10.4 mph - N/A   Clear
9:00 PM 28.4 °F 20.4 °F 21.2 °F 74% 30.00 in 25.0 mi SW 8.1 mph - N/A   Clear
10:00 PM 30.2 °F 21.3 °F 21.2 °F 69% 29.99 in 25.0 mi SW 10.4 mph - N/A   Clear
11:00 PM 28.4 °F 19.1 °F 21.2 °F 74% 29.99 in 25.0 mi SW 10.4 mph - N/A   Clear